Find Starlink 36670

NORAD ID: 67828 Int'l Des: 2026-033 Owner: SPXS Country: US Constellation: starlink operational
LEOCIRCULAR

現在のビュー

3D地球を読み込み中...

Starlink 36670について

説明を読み込み中...

次回通過

Passes for default location (London). Set your location on the main map for personalized predictions.

高度履歴

Loading altitude history...

軌道要素

1 67828U 26033H 26146.38877242 .00016123 00000-0 59384-3 0 9990
2 67828 42.9999 188.5511 0001230 268.5949 91.4762 15.27597300 16558
Epoch: May 26, 2026 • Age: 13 hours

現在のステータス

高度 482.2 km
速度 7.63 km/s
衛星直下点 9.75°N, 17.54°W
打ち上げ日 Feb 16, 2026
運用期間 0.2 years
タイプ internet

技術仕様

分類 Payload
質量 575.00 kg
乾燥質量 530.00 kg
総質量 575.00 kg
長さ 0.30 m
直径 4.10 m
スパン 29.00 m
形状 Box + pan
製造者 SPXS
バスタイプ Starlink V2MO
フェーズステータス In Orbit
所有者/国 SPXS/US

Most Searched